Telluride, CO

11:49 AM MDT on April 26, 2017 (GMT -0600)
Telluride Regional

Weather History for KTEX - August, 2014

Change the Weather History Date:

Wednesday, August 13, 2014

  Actual Average Record
Temperature  
Mean Temperature 61 °F -  
Max Temperature 69 °F 68 °F 82 °F (1996)
Min Temperature 53 °F 48 °F 44 °F (2002)
Degree Days  
Heating Degree Days 4    
Growing Degree Days 11 (Base 50)    
Moisture  
Dew Point 47 °F    
Average Humidity 61    
Maximum Humidity 82    
Minimum Humidity 40    
Precipitation  
Precipitation 0.00 in - - ()
Sea Level Pressure  
Sea Level Pressure 30.46 in    
Wind  
Wind Speed 4 mph (ESE)    
Max Wind Speed 15 mph    
Max Gust Speed 24 mph    
Visibility 10 miles    
Events Rain , Thunderstorm    
Averages and records for this station are not official NWS values.
T = Trace of Precipitation, MM = Missing Value Source: NWS Daily Summary

Daily Weather History Graph

Daily Weather History Graph

Search for Another Location

Airport or City:

Trip Planner

Search our weather history database for the weather conditions in past years. The results will help you decide how hot, cold, wet, or windy it might be!

Date:

Astronomy

Aug. 13, 2014 Rise Set
Actual Time 6:25 AM MDT 8:07 PM MDT
Civil Twilight 5:56 AM MDT 8:35 PM MDT
Nautical Twilight 5:22 AM MDT 9:09 PM MDT
Astronomical Twilight 4:46 AM MDT 9:45 PM MDT
Moon 9:59 PM MDT (8/13) 9:52 AM MDT (8/13)
Length of Visible Light 14h 38m
Length of Day
13h 41m
Waning Gibbous, 87% of the Moon is Illuminated
Aug 13
Waning Gibbous
Aug 17
Last Quarter
Aug 25
New
Sep 2
First Quarter
Sep 8
Full

Hourly Weather History & Observations

Time (MDT) Temp. Dew Point Humidity Pressure Visibility Wind Dir Wind Speed Gust Speed Precip Events Conditions
12:17 AM 53.6 °F 48.2 °F 82% 30.50 in 10.0 mi ESE 4.6 mph - N/A   Clear
12:57 AM 53.6 °F 46.4 °F 77% 30.50 in 10.0 mi ESE 6.9 mph - N/A   Clear
1:18 AM 53.6 °F 48.2 °F 82% 30.49 in 10.0 mi East 3.5 mph - N/A   Clear
1:57 AM 53.6 °F 46.4 °F 77% 30.48 in 10.0 mi ESE 4.6 mph - N/A   Clear
2:16 AM 53.6 °F 46.4 °F 77% 30.48 in 10.0 mi ESE 10.4 mph - N/A   Clear
2:59 AM 53.6 °F 46.4 °F 77% 30.49 in 10.0 mi Calm Calm - N/A   Scattered Clouds
3:16 AM 55.4 °F 44.6 °F 67% 30.49 in 10.0 mi Calm Calm - N/A   Scattered Clouds
3:56 AM 57.2 °F 44.6 °F 63% 30.49 in 10.0 mi Calm Calm - N/A   Mostly Cloudy
4:18 AM 57.2 °F 46.4 °F 67% 30.49 in 10.0 mi East 3.5 mph - N/A   Overcast
4:38 AM 57.2 °F 46.4 °F 67% 30.49 in 10.0 mi Calm Calm - N/A   Scattered Clouds
5:16 AM 57.2 °F 46.4 °F 67% 30.48 in 10.0 mi East 8.1 mph - N/A   Scattered Clouds
5:37 AM 55.4 °F 46.4 °F 72% 30.48 in 10.0 mi ESE 6.9 mph - N/A   Mostly Cloudy
7:17 AM 57.2 °F 46.4 °F 67% 30.49 in 10.0 mi South 4.6 mph - N/A   Clear
7:57 AM 57.2 °F 46.4 °F 67% 30.50 in 10.0 mi Calm Calm - N/A   Mostly Cloudy
8:38 AM 59.0 °F 48.2 °F 67% 30.51 in 10.0 mi Calm Calm - N/A   Overcast
8:56 AM 60.8 °F 48.2 °F 63% 30.51 in 10.0 mi Calm Calm - N/A   Overcast
9:16 AM 60.8 °F 50.0 °F 68% 30.51 in 10.0 mi Calm Calm - N/A   Overcast
9:36 AM 62.6 °F 48.2 °F 59% 30.50 in 10.0 mi Calm Calm - N/A   Scattered Clouds
9:56 AM 64.4 °F 50.0 °F 59% 30.50 in 10.0 mi ESE 3.5 mph - N/A   Scattered Clouds
10:16 AM 64.4 °F 48.2 °F 56% 30.49 in 10.0 mi ESE 5.8 mph - N/A   Scattered Clouds
10:37 AM 64.4 °F 48.2 °F 56% 30.49 in 10.0 mi East 3.5 mph - N/A   Scattered Clouds
10:57 AM 66.2 °F 48.2 °F 52% 30.49 in 10.0 mi SE 3.5 mph - N/A   Scattered Clouds
11:16 AM 66.2 °F 46.4 °F 49% 30.49 in 10.0 mi SE 4.6 mph - N/A   Scattered Clouds
11:36 AM 66.2 °F 46.4 °F 49% 30.48 in 10.0 mi SE 4.6 mph - N/A   Scattered Clouds
12:16 PM 66.2 °F 44.6 °F 46% 30.47 in 10.0 mi WSW 3.5 mph - N/A   Overcast
12:36 PM 68.0 °F 48.2 °F 49% 30.46 in 10.0 mi SSW 3.5 mph - N/A   Mostly Cloudy
12:56 PM 66.2 °F 46.4 °F 49% 30.45 in 10.0 mi West 3.5 mph - N/A   Mostly Cloudy
1:16 PM 66.2 °F 46.4 °F 49% 30.45 in 10.0 mi WSW 4.6 mph - N/A   Overcast
1:36 PM 66.2 °F 44.6 °F 46% 30.44 in 10.0 mi East 3.5 mph - N/A   Overcast
1:58 PM 69.8 °F 44.6 °F 40% 30.43 in 10.0 mi SSE 10.4 mph - N/A   Overcast
2:16 PM 69.8 °F 44.6 °F 40% 30.42 in 10.0 mi Calm Calm - N/A   Scattered Clouds
2:36 PM 66.2 °F 46.4 °F 49% 30.42 in 10.0 mi East 5.8 mph - N/A Thunderstorm Mostly Cloudy
2:56 PM 66.2 °F 46.4 °F 49% 30.42 in 10.0 mi East 6.9 mph - N/A Rain Light Rain
3:36 PM 62.6 °F 48.2 °F 59% 30.43 in 10.0 mi SSE 15.0 mph 24.2 mph N/A Rain , Thunderstorm Light Thunderstorms and Rain
3:56 PM 62.6 °F 46.4 °F 55% 30.42 in 10.0 mi ESE 9.2 mph 23.0 mph N/A Thunderstorm Unknown
4:17 PM 64.4 °F 46.4 °F 52% 30.43 in 10.0 mi ESE 5.8 mph 19.6 mph N/A Thunderstorm Unknown
4:56 PM 62.6 °F 46.4 °F 55% 30.42 in 10.0 mi East 6.9 mph - N/A   Overcast
5:18 PM 62.6 °F 44.6 °F 52% 30.42 in 10.0 mi SE 3.5 mph - N/A Rain Light Rain
5:36 PM 64.4 °F 46.4 °F 52% 30.41 in 10.0 mi SE 3.5 mph - N/A   Mostly Cloudy
11:17 PM 57.2 °F 48.2 °F 72% 30.41 in 10.0 mi East 4.6 mph - N/A   Overcast
11:37 PM 57.2 °F 48.2 °F 72% 30.40 in 10.0 mi ESE 10.4 mph - N/A   Overcast
11:57 PM 57.2 °F 48.2 °F 72% 30.40 in 10.0 mi ESE 5.8 mph - N/A   Overcast